map of PNH home
Great Circle Mapper logo
PNH - Airport
Location
City:  Phnom Penh, Cambodia
Name:Pochentong International Airport
ICAO / IATA:VDPP / PNH

Details
Type:Airport (Aerodrome, Airfield)
Use:Public/Civil, Military, International (customs port of entry)
Latitude:11°32'48"N (11.546556)
Longitude:104°50'39"E (104.844139)
Datum:WGS 1984
Elevation:40 ft (12 m)
Runways:1
Longest:9843 × 144 ft (3000 × 44 m), paved

Time
Time Zone:UTC+7
Local Time:

Weather
METAR:VDPP 020000Z 00000KT 9999 SCT017 SCT040 27/25 Q1010
TAF:VDPP 012300Z 0200/0218 30007KT 9999 SCT017
TEMPO 0204/0207 VRB04KT
TEMPO 0207/0213 5000 TSRA SCT015 FEW017CB SCT040

Related Locations
Nearby:
Farthest:SPRM: 12437 mi / 20015 km
San Ramón [Capitán FAP Leonardo Alvariño Herr Airport], PE

Find:

   beyond  
but within

Other Information
Maps:
NOTAMs:
Links:
Sources:

  
flag of Cambodia   

Sectional Chart

Flight Planning
at skyvector.com

Satellite Image

Google Maps Satellite View

 

Copyright © 2004-2014 Karl L. Swartz. All rights reserved.
The Great Circle Mapper name and logo are trademarks of the Great Circle Mapper.
All other trademarks mentioned herein belong to their respective owners.
Please see credits for attibutions and further copyright information.

  Follow gcmap on Facebook Follow gcmap on Twitter

hCard Microformat

Geo Microformat